sat.trackr.live / text

‹ back to catalog

SAUDICOMSAT 7

NORAD 31119 · 2007-012C

PAYLOAD ACTIVE UNKNOWN

§ Identity

Operator
Country
SAUD
Launch date
2007-04-17
Launch site
TYMSC
Launch vehicle
Mass (kg)
RCS (m²)
0.07

External: N2YO · Heavens-Above · Gunter

§ Orbital elements

Epoch: 2026-09-13T03:36:19.668960Z

Period
98.21 min
Inclination
98.3889°
Eccentricity
0.0054311
Mean motion
14.66198888 rev/d
Perigee alt
634.9 km
Apogee alt
711.5 km
Semi-major
7,051.4 km
B*
7.8618e-5
RAAN
232.1328°
Arg perigee
281.2398°
Mean anomaly
78.2703°
Rev number
3,532

§ Raw data

SAUDICOMSAT 71 31119U 07012C   26256.15022765  .00000387  00000+0  78618-4 0  99952 31119  98.3889 232.1328 0054311 281.2398  78.2703 14.66198888 35329

JSON: /api/v1/satellites/31119 · /tle

For live sub-satellite position, see the globe view (requires WebGL).

§ Visibility from observer

Set your observer location to see the next 7 days of passes ≥ 10°. The values pass through the URL so the page stays shareable.

No JS? Fill the form by hand. The geolocation button needs JavaScript.